(341982) = 2008 QR40

Discovered at Kitt Peak on 2008-08-24 by Spacewatch.

Orbit

Orbit type: Main Belt

Note: WebGL enabled browser required.

epoch2023-02-25.0
epoch JD2460000.5
perihelion date2021-07-10.05356
perihelion JD2459405.55356
argument of perihelion (°)162.99139
ascending node (°)188.15393
inclination (°)3.42994
eccentricity0.1032467
perihelion distance (AU)2.3759144
Tisserand w.r.t. Jupiter3.4
ΔV w.r.t. Earth (km/sec)9.7
semimajor axis (AU)2.6494629
mean anomaly (°)135.97058
mean daily motion (°/day)0.22854260
aphelion distance (AU)2.923
period (years)4.31
P-vector [x]0.98800759
P-vector [y]-0.14771255
P-vector [z]-0.04496664
Q-vector [x]0.15417195
Q-vector [y]0.92774899
Q-vector [z]0.33987176
absolute magnitude17.66
phase slope0.15
uncertainty0
referenceMPO 730676
observations used113
oppositions11
arc length (days)6666
first opposition used2004
last opposition used2023
residual rms (arc-secs)0.96
perturbers coarse indicatorM-v
perturbers precise indicator003Ek
first observation date used2004-10-23.0
last observation date used2023-01-23.0
computer nameMPCLINUX
JD of orbit computation2456153.821281
perihelion JD uncertainty (days)3.6446E-04
argument of perihelion uncertainty (°)1.9239E-04
ascending node uncertainty (°)1.5654E-04
inclination uncertainty (°)1.5059E-05
eccentricity uncertainty 2.4347E-07
perihelion distance uncertainty (AU)7.4177E-07
Minimum Orbit Intersection Distances (in AU)
for orbit epoch: 2460000.5, reference: E2023-B94
Mercury1.99494
Venus1.6519
Earth1.36871
Mars0.98616
Jupiter2.46364
Saturn6.32623
Uranus15.5215
Neptune27.3919

Observations

117 total observations over interval: 2004 10 23.41068 – 2023 01 23.415587
These data are available for download (format description).

